Location: Brno
(49.2000°N, 16.6330°E)
Time: 09:36:23
(UTC+02:00)

Daily predictions for brighter satellites

Satellite Brightness Start Highest point End
(mag) Time Altitude Azimuth Time Altitude Azimuth Time Altitude Azimuth
Cosmos 2322 Rocket 2.6 18:19:31 10° NNW 18:25:08 72° WSW 18:30:43 10° SSE
Centaur D AC-29 4.5 18:18:20 10° SW 18:27:40 15° SSW 18:32:05 10° SSE
SL-14 R/B 3.6 18:25:15 10° NNW 18:29:06 70° W 18:32:55 10° S
H-2A R/B 4.4 18:26:44 10° E 18:29:07 16° ENE 18:31:32 10° NNE
Cosmos 1809 Rocket 4.4 18:24:05 10° S 18:30:10 80° E 18:36:15 10° NNE
ATLAS 5 CENTAUR R/B 3.8 18:29:42 10° WNW 18:33:38 22° NNW 18:37:53 10° NNE
Cosmos 1624 Rocket 4.4 18:29:32 10° NNW 18:34:45 72° WSW 18:39:57 10° SSE
YAOGAN 1 2.6 18:36:01 10° SSE 18:40:21 88° W 18:44:43 10° NNW
Meteor 1-11 4.3 18:37:53 10° NNW 18:43:44 88° E 18:49:29 10° S
Cosmos 1420 Rocket 4.3 18:38:41 10° NNW 18:43:49 46° ENE 18:48:55 10° SE
Cosmos 1626 2.0 18:40:52 10° N 18:44:37 71° E 18:48:20 10° SSE
Cosmos 1680 Rocket 4.4 18:41:03 10° SW 18:46:12 53° WNW 18:51:21 10° NNE
Aureole 2 Rocket 4.3 18:44:07 10° N 18:46:44 18° NE 18:48:51 12° E
Cosmos 2322 3.7 18:41:44 10° NNW 18:47:28 65° ENE 18:53:09 10° SE
GP-B 3.1 18:43:56 10° N 18:48:23 67° E 18:52:48 10° S
Cosmos-2242 3.2 18:44:58 10° SSW 18:49:13 74° WNW 18:53:29 10° N
deb Kosmos-1763 4.2 18:47:32 10° SSW 18:51:22 83° WNW 18:55:14 10° NNE
FENGYUN 3A 3.8 18:47:45 10° SE 18:53:00 55° ENE 18:58:18 10° N
Meteor 2-21 Rocket 4.5 18:47:31 10° S 18:53:37 89° WNW 18:59:43 10° N
Cosmos 2151 2.9 18:49:54 10° N 18:54:12 71° E 18:58:27 10° SSE
Meteor 1-16 Rocket 4.2 18:49:52 10° SSW 18:55:10 85° W 19:00:36 10° N
Cosmos 1315 Rocket 3.0 18:52:34 10° N 18:56:32 50° ENE 19:00:31 10° SSE
FREGAT/IRIS 3.7 18:56:13 10° SE 18:58:42 25° ENE 19:01:14 10° NNE
Aureole 1 Rocket 3.6 18:52:38 10° SSW 18:58:57 90° N 19:03:42 10° NNE
SKYMED 2 3.5 18:55:58 10° NNE 19:00:18 65° ESE 19:04:37 10° S
Cosmos 1743 Rocket 3.9 19:00:51 10° NNW 19:05:13 71° W 19:09:36 10° S
MTI 4.3 19:02:05 10° N 19:05:18 63° WNW 19:08:27 10° SSW
BREEZE-M DEB (TANK) 2.9 19:04:37 10° SSW 19:06:25 23° SSE 19:06:53 21° SE
Cosmos 2219 Rocket 2.8 19:02:00 10° NNW 19:07:13 37° NE 19:11:23 15° ESE
Gbstr 26 Del rocket 3.5 19:02:27 10° WNW 19:07:17 84° NNE 19:12:00 16° ESE
Cosmos 2366 rocket 4.0 19:01:57 10° S 19:08:11 89° WNW 19:14:24 10° N
EO 1 Del DPAF 3.3 19:04:56 10° NNE 19:08:48 83° WNW 19:12:39 10° SSW
BREEZE-M DEB (TANK) 4.0 19:10:51 10° W 19:14:48 65° SSW 19:29:45 10° ESE
ALOS 2.2 19:10:39 10° SSE 19:15:19 84° ENE 19:20:02 10° NNW
RESURS DK-1 2.8 19:11:53 10° NW 19:16:00 63° WSW 19:20:04 10° SSE
Cosmos 1842 Rocket 3.6 19:12:46 10° S 19:17:14 89° W 19:21:44 10° N
Cosmos 2058 3.4 19:15:07 10° NNW 19:19:17 65° W 19:23:24 10° S
SL-16 R/B 4.4 19:14:53 10° NW 19:19:40 29° WSW 19:24:26 10° SSW
Cosmos 2221 2.7 19:16:55 10° SSE 19:21:03 47° E 19:25:15 10° NNE
NOSS 0 Rocket 4.4 19:15:36 10° NNW 19:21:27 41° NE 19:25:12 21° ESE
Lacrosse 5 rocket 2.6 19:18:21 10° W 19:22:29 36° NNW 19:25:30 15° NE
Cosmos 2333 4.2 19:17:23 10° NNW 19:23:06 67° ENE 19:28:49 10° SE
SPOT 3 Rocket 4.2 19:19:21 10° S 19:24:28 60° WSW 19:29:39 10° NNW
DMSP B5D1-3 4.4 19:19:24 10° NNE 19:24:33 69° ESE 19:29:40 10° S
Cosmos 2237 4.3 19:18:59 10° NNW 19:24:45 84° WSW 19:30:29 10° SSE
SJ-6B 3.0 19:22:45 18° SE 19:25:10 42° ENE 19:28:44 10° N
Cosmos 921 Rocket 3.2 19:21:42 10° NNW 19:26:11 75° WSW 19:30:34 10° SSE
Cosmos 1461 4.0 19:22:19 10° WSW 19:26:14 42° NW 19:30:21 10° NNE
Cosmos 1500 Rocket 4.3 19:22:41 10° NNW 19:26:58 55° W 19:31:11 10° S
GRACE-2 4.1 19:25:27 10° S 19:28:01 63° W 19:30:35 10° N
Resurs 01 Rocket 2.5 19:29:39 27° E 19:30:15 28° ENE 19:34:01 10° N
GRACE-1 4.4 19:28:05 10° SSW 19:30:37 55° W 19:33:11 10° N
BREEZE-M DEB (TANK) 4.5 19:08:08 10° W 19:32:53 83° SSW 19:36:41 24° ESE
NOSS 3 (A) 4.5 19:31:46 10° SSW 19:34:34 66° SE 19:35:18 46° ENE
Cosmos 468 4.5 19:31:22 10° S 19:36:29 59° ESE 19:41:38 10° NNE
Cosmos 2237 Rocket 2.8 19:32:40 10° NNW 19:37:57 37° NE 19:39:53 29° E
Cosmos 2084 3.7 19:34:21 10° NNW 19:37:58 40° NE 19:38:36 37° ENE
Cosmos 2098 Rocket 3.5 19:35:02 10° S 19:39:26 56° E 19:45:05 10° NNE
Cosmos 1452 Rocket 4.3 19:35:10 10° NNW 19:40:16 52° WSW 19:45:21 10° S
USA 234 3.6 19:37:13 24° E 19:41:05 54° NNE 19:47:26 10° WNW
Cosmos 1000 Rocket 4.4 19:35:09 10° N 19:41:28 85° E 19:47:39 10° S
Resurs 1-3 4.2 19:43:52 35° ENE 19:44:01 35° ENE 19:48:00 10° N
Cosmos 1821 Rocket 3.9 19:39:11 10° S 19:45:14 63° E 19:51:26 10° NNE
HJ-1C 3.3 19:45:20 46° SE 19:46:11 70° ENE 19:49:37 10° N
SL-16 R/B 3.4 19:42:35 10° N 19:47:05 23° NE 19:47:52 23° NE
COSMO-SKYMED 1 3.8 19:44:12 10° N 19:48:20 43° WNW 19:52:26 10° SW
Cosmos 44 3.7 19:47:08 10° S 19:50:25 34° SE 19:50:25 34° SE
Cosmos 1934 Rocket 4.1 19:45:17 10° SSE 19:51:26 55° E 19:57:39 10° NNE
Cosmos 2239 Rocket 4.3 19:47:07 10° S 19:53:13 72° E 19:59:22 10° NNE
Cosmos 1726 2.7 19:49:58 10° S 19:56:47 13° NNE 19:57:17 10° NNE
Cosmos 1908 3.7 19:51:22 10° SSW 19:55:15 61° WNW 19:59:09 10° N
Abrixas rocket 2.2 19:53:51 10° W 19:56:58 74° SW 19:56:58 74° SW
Spot 2 Rocket 3.7 19:56:37 42° E 19:57:26 46° ENE 20:02:16 10° N
Sich 1 2.9 19:54:42 10° N 19:59:05 74° E 20:00:42 38° SSE
MOS 1-B Rocket 3.8 19:57:04 23° SSE 20:00:43 68° ENE 20:06:52 10° NNW
COSMOS 2428 3.0 19:55:20 10° NNW 20:00:59 67° WSW 20:06:07 13° SSE
Cosmos 1110 Rocket 4.0 19:55:53 10° NNW 20:01:11 62° ENE 20:02:39 44° ESE
Cosmos 1980 3.8 19:55:49 10° NNW 20:01:22 54° NE 20:02:43 44° E
Cosmos 2360 Rocket 3.9 19:56:37 10° NW 20:01:35 32° WSW 20:06:30 10° SSW
GENESIS II 4.2 19:58:34 10° SW 20:02:33 83° NW 20:03:24 54° NNE
H-2A R/B 3.3 19:59:08 10° S 20:02:57 57° W 20:06:51 10° NNW
Cosmos 2333 Rocket 2.1 19:58:42 10° NNW 20:04:28 76° ENE 20:06:48 38° SE
Cosmos 1805 Rocket 3.9 20:01:02 10° NNW 20:05:23 65° W 20:09:44 10° S
Cosmos 44 Rocket 3.4 20:04:42 10° SSW 20:08:42 50° SSE 20:08:42 50° SSE
Cosmos 2123 Rocket 3.9 20:03:16 10° N 20:09:32 81° E 20:15:20 12° SSE
Cosmos 1666 Rocket 3.5 20:09:43 10° NNW 20:14:06 81° W 20:15:22 46° S
Cosmos 2219 3.1 20:08:38 10° SSW 20:14:20 66° ESE 20:17:13 30° NE
Iridium 4 Rocket 4.4 20:12:22 10° SSW 20:17:51 57° W 20:23:40 10° N
CZ-4C R/B 2.2 20:14:10 10° SSW 20:19:04 55° SE 20:19:04 55° SE
Cosmos 1605 Rocket 3.9 20:13:26 10° S 20:19:24 60° E 20:25:24 10° NNE
ATLAS 5 CENTAUR R/B 4.0 20:16:23 10° NW 20:20:15 19° N 20:21:53 17° NNE
CZ-2D R/B 3.4 20:20:57 70° WNW 20:20:57 70° WNW 20:24:32 10° NNW
Aureole 2 Rocket 3.2 20:18:19 10° NNW 20:22:05 56° WSW 20:22:19 55° SW
Cosmos 1633 Rocket 3.1 20:18:15 10° NNW 20:22:42 80° W 20:23:10 69° SSW
Geosat 4.5 20:23:27 45° NE 20:23:27 45° NE 20:27:50 10° NNW
Cosmos 1048 Rocket 4.0 20:18:53 10° SSW 20:24:01 80° WNW 20:29:10 10° NNE
Thor Agena Rocket 4.0 20:19:14 10° N 20:24:16 59° WNW 20:29:14 10° SSW
SL-8 R/B 3.8 20:19:41 10° WSW 20:24:09 62° S 20:24:09 62° S
BREEZE-M DEB (TANK) 3.0 20:18:10 10° W 20:26:12 60° S 20:26:22 59° S
Cosmos 967 Rocket 4.5 20:22:36 10° NW 20:29:03 65° NE 20:29:58 59° E
Envisat 2.9 20:31:40 76° SSE 20:32:06 89° ENE 20:37:13 10° NNW
USA 267 3.3 20:47:01 59° SSE 20:47:01 59° SSE 20:52:59 10° SW
Cosmos 1447 Rocket 4.4 20:42:55 10° N 20:49:18 88° ENE 20:50:00 73° SSE
Cosmos 2219 Rocket 3.1 20:45:59 10° NW 20:51:16 44° WSW 20:53:09 32° SSW
Lacrosse 5 rocket 3.5 20:58:48 10° NW 21:01:11 23° NNW 21:01:11 23° NNW
Resurs 01 Rocket 3.1 21:07:14 35° WNW 21:07:14 35° WNW 21:10:44 10° NNW
Cosmos 2237 Rocket 3.1 21:16:43 10° NW 21:21:44 45° W 21:21:44 45° W
USA 234 3.3 21:24:35 71° W 21:24:35 71° W 21:30:33 10° WNW
Meteor 2-3 Rocket 4.5 21:18:37 10° NNW 21:23:33 51° WNW 21:23:33 51° WNW
SL-16 R/B 3.3 21:26:13 10° NNW 21:29:45 40° NNW 21:29:45 40° NNW
H-2A R/B 4.2 21:35:39 19° N 21:35:39 19° N 21:37:10 10° N
Cosmos 2333 Rocket 4.3 21:44:02 10° NW 21:48:06 20° W 21:48:50 20° WSW
ATLAS 5 CENTAUR R/B 4.3 22:01:17 10° NW 22:03:24 22° NNW 22:03:24 22° NNW
CZ-4C R/B 4.4 22:02:50 10° WSW 22:04:19 18° W 22:04:19 18° W
